Shirley, NY

3:57 AM EST on December 07, 2016 (GMT -0500)
Brookhaven

Weather History for KHWV - March, 2013

Change the Weather History Date:

Friday, March 22, 2013

  Actual Average (KISP) Record (KISP)
Temperature  
Mean Temperature 33 °F 41 °F  
Max Temperature 43 °F 49 °F 73 °F (2012)
Min Temperature 25 °F 33 °F 19 °F (1988)
Degree Days  
Heating Degree Days 32 24  
Month to date heating degree days 595  
Since 1 July heating degree days 4490  
Cooling Degree Days 0 0  
Month to date cooling degree days 0  
Year to date cooling degree days 0  
Moisture  
Dew Point 17 °F    
Average Humidity 49    
Maximum Humidity 67    
Minimum Humidity 35    
Precipitation  
Precipitation 0.00 in 0.15 in 0.95 in (1999)
Month to date precipitation 3.14  
Year to date precipitation 10.04  
Snow  
Snow 0.00 in 0.10 in 3.00 in (1992)
Month to date snowfall 3.8  
Since 1 July snowfall 23.5  
Snow Depth -    
Sea Level Pressure  
Sea Level Pressure 29.77 in    
Wind  
Wind Speed 10 mph (WNW)    
Max Wind Speed 18 mph    
Max Gust Speed 28 mph    
Visibility 10 miles    
Events      
T = Trace of Precipitation, MM = Missing Value Source: NWS Daily Summary

Daily Weather History Graph

Daily Weather History Graph

Search for Another Location

Airport or City:

Trip Planner

Search our weather history database for the weather conditions in past years. The results will help you decide how hot, cold, wet, or windy it might be!

Date:

Astronomy

Mar. 22, 2013 Rise Set
Actual Time 6:51 AM EDT 7:05 PM EDT
Civil Twilight 6:23 AM EDT 7:33 PM EDT
Nautical Twilight 5:51 AM EDT 8:05 PM EDT
Astronomical Twilight 5:19 AM EDT 8:38 PM EDT
Moon 2:28 PM EDT (3/22) 3:51 AM EDT (3/22)
Length of Visible Light 13h 09m
Length of Day
12h 14m
Waxing Gibbous, 77% of the Moon is Illuminated
Mar 22
Waxing Gibbous
Mar 27
Full
Apr 3
Last Quarter
Apr 10
New
Apr 18
First Quarter

Hourly Weather History & Observations

Time (EDT) Temp. Windchill Dew Point Humidity Pressure Visibility Wind Dir Wind Speed Gust Speed Precip Events Conditions
12:56 AM 32.0 °F 23.6 °F 15.1 °F 50% 29.72 in 10.0 mi NNW 10.4 mph - N/A   Overcast
1:56 AM 30.0 °F 23.2 °F 14.0 °F 51% 29.73 in 10.0 mi NNW 6.9 mph - N/A   Clear
2:56 AM 28.9 °F 21.1 °F 14.0 °F 54% 29.72 in 10.0 mi NW 8.1 mph - N/A   Clear
3:56 AM 28.0 °F 20.8 °F 15.1 °F 58% 29.71 in 10.0 mi WNW 6.9 mph - N/A   Clear
4:56 AM 27.0 °F 20.5 °F 14.0 °F 58% 29.72 in 10.0 mi West 5.8 mph - N/A   Clear
5:56 AM 27.0 °F 21.6 °F 15.1 °F 61% 29.73 in 10.0 mi West 4.6 mph - N/A   Clear
6:56 AM 25.0 °F - 15.1 °F 66% 29.74 in 10.0 mi Calm Calm - N/A   Clear
7:56 AM 28.9 °F 22.8 °F 19.0 °F 67% 29.76 in 10.0 mi West 5.8 mph - N/A   Clear
8:56 AM 33.1 °F 23.4 °F 19.9 °F 59% 29.77 in 10.0 mi NW 13.8 mph 23.0 mph N/A   Clear
9:56 AM 34.0 °F 25.0 °F 19.9 °F 56% 29.78 in 10.0 mi WNW 12.7 mph - N/A   Clear
10:56 AM 37.0 °F 27.7 °F 19.0 °F 48% 29.78 in 10.0 mi WNW 16.1 mph 21.9 mph N/A   Scattered Clouds
11:56 AM 37.9 °F 29.2 °F 19.0 °F 47% 29.78 in 10.0 mi West 15.0 mph 21.9 mph N/A   Scattered Clouds
12:56 PM 39.9 °F 31.1 °F 18.0 °F 41% 29.77 in 10.0 mi WNW 17.3 mph 27.6 mph N/A   Clear
1:56 PM 41.0 °F 32.8 °F 17.1 °F 38% 29.77 in 10.0 mi West 16.1 mph 21.9 mph N/A   Partly Cloudy
2:56 PM 41.0 °F 32.8 °F 16.0 °F 36% 29.76 in 10.0 mi WNW 16.1 mph 27.6 mph N/A   Mostly Cloudy
3:56 PM 41.0 °F 32.8 °F 16.0 °F 36% 29.77 in 10.0 mi WNW 16.1 mph 27.6 mph N/A   Mostly Cloudy
4:56 PM 41.0 °F 32.2 °F 15.1 °F 35% 29.77 in 10.0 mi West 18.4 mph 26.5 mph N/A   Scattered Clouds
5:56 PM 41.0 °F 33.5 °F 17.1 °F 38% 29.78 in 10.0 mi West 13.8 mph 23.0 mph N/A   Overcast
6:56 PM 39.0 °F 31.4 °F 17.1 °F 41% 29.81 in 10.0 mi West 12.7 mph 19.6 mph N/A   Mostly Cloudy
7:56 PM 37.9 °F 32.7 °F 18.0 °F 45% 29.83 in 10.0 mi West 6.9 mph - N/A   Mostly Cloudy
8:56 PM 37.9 °F 30.9 °F 18.0 °F 45% 29.84 in 10.0 mi WNW 10.4 mph - N/A   Scattered Clouds
9:56 PM 36.0 °F 33.3 °F 18.0 °F 48% 29.85 in 10.0 mi West 3.5 mph - N/A   Scattered Clouds
10:56 PM 36.0 °F 32.1 °F 19.0 °F 50% 29.86 in 10.0 mi WNW 4.6 mph - N/A   Clear